User: anonymous   Login
Location: Unspecified
(0.0000°N, 0.0000°E)
Time: 19:00:43
(UTC+00:00)
Language:

STARLINK-2686 - Orbit

View from above orbital plane
View from above orbital plane
View from above satellite
View from above satellite

Ground track
Ground track

The orbit is defined by the following mean orbital elements,

1 48464U          26145.55448241 +.00000000 +00000-0 -31785-3 0 00008
2 48464  53.1581 193.6826 0001059  88.2521 271.8601 15.31695429    07
Epoch (UTC): 25 May 2026 13:18:27
Eccentricity: 0.0001059
inclination: 53.1581°
perigee height: 470 km
apogee height: 471 km
right ascension of ascending node: 193.6826°
argument of perigee: 88.2521°
revolutions per day: 15.31695429
mean anomaly at epoch: 271.8601°

The dashed part of the orbit path shows where the satellite is in the earth's shadow,  

DLR